Погода в Слободке

Россия / Рязанская область     54°10′48″N   39°16′12″E
темп.,
°C
ветер,
м/с
пор.,
м/с
влажн.,
%
обл.,
%
осадки,
мм/ч
давл.,
гПа
погр.,
м
19 апреля, пн
пн1900:00+6всв5993100 0.5 1020320
03:00+6всв5992100 0.8 1020354
06:00+6св61188100 0.3 1020418
09:00+6всв71192100 1.4 1020764
12:00+6всв61191100 5.4 1020991
15:00+6всв71288100 7.6 10201097
18:00+6всв61292100 3.9 10201106
21:00+5всв81492100 7.1 1021940
20 апреля, вт
вт2000:00+5в81487100 0.2 1020746
03:00+5в71386100 0.3 1020611
06:00+4в71284100 0.1 1020627
09:00+3в71295100 0.1 1019638
12:00+2всв71396100 0.8 1018500
15:00+3в71397100 2.0 1016710
18:00+3в81595100 0.8 1013718
21:00+3всв91797100 6.8 1008814
21 апреля, ср
ср2100:00+5в101893100 8.1 1002943
03:00+8вюв101793100 10.2 998669
06:00+4ююв81791100 2.6 997669
09:00+2ююз101496100 2.6 1000694
12:00+3юз91496100 0.1 1005792
15:00+4юз71287100 0.1 10091009
18:00+6юз51183100 0.0 1012557
21:00+5ю498997 0.0 1014220
22 апреля, чт
чт2200:00+4ю389287 0.1 1014147
03:00+3ююз49926 0.1 1015167
06:00+4ююз31089100 0.1 1016257
09:00+7ююз51077100 0.1 1017457
12:00+11ююз6107099 0.1 1018915
15:00+13юз696031 0.6 10181578
18:00+13ю496899 0.6 1018333
21:00+10ю41175100 0.8 1019239
23 апреля, пт
пт2300:00+8ю4108389 0.0 1019184
03:00+7ю488842 0.0 1019139
06:00+7ю499085 0.0 1019179
09:00+12ю577423 0.0 1019467
12:00+15ю68575 0.5 10171433
15:00+16ю7951100 1.2 10162227
18:00+13ююв4970100 0.3 1015258
21:00+11ююв51173100 0.3 1014253